Hourly Data Report for June 11, 2021

HALIFAX STANFIELD INT'L A
NOVA SCOTIA
Current Station Operator: NAVCAN

44°52'52.000" N
63°30'31.000" W
145.40 m
8202251
71395
YHZ

Download Data

Hourly Data (June 2021)
Hourly Data Report for June 11, 2021
TIME
LST
Temp Definition
°C
Dew Point Definition
°C
Rel Hum Definition
%
Precip. Amount Definition
mm

Wind Dir Definition
10's deg

Wind Spd Definition
km/h
Visibility Definition
km
Stn Press Definition
kPa
Hmdx Definition


Wind Chill Definition


Weather Definition


00:00 5.7 3.2 84   31 9 24.1 100.29     LegendNANA
01:00 4.8 3.3 90   33 8 24.1 100.27     LegendNANA
02:00 5.1 2.9 86   30 5 24.1 100.26     Mainly Clear
03:00 4.4 3.2 92   26 10 24.1 100.28     LegendNANA
04:00 4.6 1.8 82   27 11 24.1 100.27     LegendNANA
05:00 5.0 2.0 81   24 4 24.1 100.28     Mostly Cloudy
06:00 6.4 0.9 68   26 8 24.1 100.28     LegendNANA
07:00 9.3 2.0 60   28 12 24.1 100.29     LegendNANA
08:00 11.3 2.1 53   26 12 24.1 100.31     Mainly Clear
09:00 12.7 -0.4 40   28 7 24.1 100.26     LegendNANA
10:00 14.2 1.4 42   24 8 24.1 100.19     LegendNANA
11:00 14.2 1.6 42   28 12 24.1 100.15     Mostly Cloudy
12:00 15.7 2.3 40   22 19 24.1 100.06     LegendNANA
13:00 16.5 3.7 42   27 13 24.1 100.00     LegendNANA
14:00 15.8 2.4 40   20 26 24.1 99.98     Mostly Cloudy
15:00 15.2 0.8 37   21 30 24.1 99.95     LegendNANA
16:00 14.6 1.7 42   20 24 24.1 99.94     LegendNANA
17:00 13.4 0.6 42   21 22 24.1 99.91     Mostly Cloudy
18:00 13.1 2.1 47   21 24 24.1 99.84     LegendNANA
19:00 12.0 2.9 53   21 23 24.1 99.83     LegendNANA
20:00 9.9 4.0 67   19 16 24.1 99.83     Mostly Cloudy
21:00 8.9 5.5 79   19 19 24.1 99.85     LegendNANA
22:00 8.6 5.9 83   20 20 24.1 99.84     LegendNANA
23:00 8.6 6.0 84   20 18 24.1 99.84     Mostly Cloudy

Notes on Data Quality.

Legend

  • E = Estimated
  • M = Missing
  • NA = Not Available*
  • [empty] = Indicates an unobserved value
Date modified: